Weather History for KDFI - May, 2014

Change the Weather History Date:

Saturday, May 17, 2014

  Actual Average Record
Temperature  
Mean Temperature 49 °F -  
Max Temperature 55 °F 72 °F 91 °F (1962)
Min Temperature 43 °F 46 °F 30 °F (1973)
Degree Days  
Heating Degree Days 16    
Moisture  
Dew Point 37 °F    
Average Humidity 69    
Maximum Humidity 83    
Minimum Humidity 40    
Precipitation  
Precipitation 0.03 in - - ()
Sea Level Pressure  
Sea Level Pressure 30.13 in    
Wind  
Wind Speed 4 mph (WNW)    
Max Wind Speed 8 mph    
Max Gust Speed -    
Visibility 10 miles    
Events Rain    
Averages and records for this station are not official NWS values.
T = Trace of Precipitation, MM = Missing Value Source: NWS Daily Summary

Daily Weather History Graph

Daily Weather History Graph

Search for Another Location

Airport or City:

Trip Planner

Search our weather history database for the weather conditions in past years. The results will help you decide how hot, cold, wet, or windy it might be!

Date:

Astronomy

May. 17, 2014 Rise Set
Actual Time 6:17 AM EDT 8:51 PM EDT
Civil Twilight 5:45 AM EDT 9:23 PM EDT
Nautical Twilight 5:05 AM EDT 10:03 PM EDT
Astronomical Twilight 4:21 AM EDT 10:47 PM EDT
Moon 11:51 PM EDT (5/17) 8:59 AM EDT (5/17)
Length of Visible Light 15h 37m
Length of Day
14h 34m
Waning Gibbous, 89% of the Moon is Illuminated
May 17
Waning Gibbous
May 21
Last Quarter
May 28
New
Jun 5
First Quarter
Jun 13
Full

Hourly Weather History & Observations

Time (EDT) Temp. Windchill Dew Point Humidity Pressure Visibility Wind Dir Wind Speed Gust Speed Precip Events Conditions
12:53 AM 46.9 °F - 42.1 °F 83% 30.05 in 10.0 mi WSW 3.5 mph - 0.00 in Rain Light Rain
1:53 AM 46.9 °F - 42.1 °F 83% 30.05 in 10.0 mi Calm Calm - 0.01 in   Overcast
2:53 AM 46.0 °F 43.9 °F 39.0 °F 76% 30.05 in 10.0 mi NW 4.6 mph - 0.00 in Rain Light Rain
3:53 AM 45.0 °F 41.2 °F 37.9 °F 76% 30.05 in 10.0 mi NW 6.9 mph - 0.00 in   Overcast
4:53 AM 44.1 °F 41.5 °F 37.9 °F 79% 30.06 in 10.0 mi NNW 4.6 mph - N/A   Overcast
5:53 AM 44.1 °F - 39.0 °F 82% 30.06 in 10.0 mi Calm Calm - N/A   Overcast
6:53 AM 44.1 °F 42.5 °F 39.0 °F 82% 30.09 in 10.0 mi WNW 3.5 mph - N/A   Overcast
7:36 AM 44.1 °F 42.5 °F 39.0 °F 82% 30.09 in 10.0 mi Variable 3.5 mph - N/A   Overcast
7:53 AM 44.1 °F - 39.0 °F 82% 30.11 in 10.0 mi North - - N/A   Overcast
8:11 AM 43.0 °F 39.5 °F 37.9 °F 82% 30.11 in 10.0 mi Variable 5.8 mph - 0.00 in Rain Light Rain
8:18 AM 43.0 °F 38.8 °F 37.9 °F 82% 30.11 in 10.0 mi NW 6.9 mph - 0.00 in Rain Light Rain
8:53 AM 44.1 °F 39.5 °F 37.0 °F 76% 30.13 in 10.0 mi NW 8.1 mph - 0.00 in Rain Light Rain
9:24 AM 43.0 °F 40.3 °F 37.9 °F 82% 30.13 in 10.0 mi Variable 4.6 mph - 0.01 in Rain Light Rain
9:53 AM 44.1 °F 41.5 °F 39.0 °F 82% 30.14 in 10.0 mi WNW 4.6 mph - 0.01 in   Overcast
10:53 AM 48.0 °F - 37.0 °F 66% 30.15 in 10.0 mi Variable 4.6 mph - N/A   Mostly Cloudy
11:53 AM 52.0 °F - 37.0 °F 57% 30.15 in 10.0 mi Variable 5.8 mph - N/A   Mostly Cloudy
12:53 PM 53.1 °F - 33.1 °F 47% 30.15 in 10.0 mi Variable 5.8 mph - N/A   Scattered Clouds
1:53 PM 55.0 °F - 34.0 °F 45% 30.15 in 10.0 mi North - - N/A   Scattered Clouds
2:53 PM 55.0 °F - 34.0 °F 45% 30.15 in 10.0 mi North - - N/A   Scattered Clouds
4:53 PM 52.0 °F - 39.9 °F 63% 30.17 in 10.0 mi NW 8.1 mph - 0.01 in   Overcast
5:53 PM 54.0 °F - 36.0 °F 51% 30.17 in 10.0 mi SW 8.1 mph - N/A   Partly Cloudy
6:53 PM 55.0 °F - 30.9 °F 40% 30.17 in 10.0 mi WNW 8.1 mph - N/A   Partly Cloudy
7:53 PM 54.0 °F - 33.1 °F 45% 30.18 in 10.0 mi Variable 3.5 mph - N/A   Mostly Cloudy
8:53 PM 50.0 °F - 35.1 °F 57% 30.19 in 10.0 mi SW 4.6 mph - 0.00 in   Partly Cloudy
10:53 PM 43.0 °F 41.3 °F 35.1 °F 74% 30.23 in 10.0 mi SSW 3.5 mph - N/A   Clear
11:53 PM 44.1 °F 41.5 °F 36.0 °F 73% 30.24 in 10.0 mi SSW 4.6 mph - N/A   Clear